Weather History for Shannon, Ireland

Change the Weather History Date:

Tuesday, January 14, 2014

  Actual Average Record
Temperature  
Mean Temperature 41 °F -  
Max Temperature 50 °F 47 °F 55 °F (1997)
Min Temperature 32 °F 37 °F 30 °F (2001)
Degree Days  
Heating Degree Days 24    
Moisture  
Dew Point 41 °F    
Average Humidity 96    
Maximum Humidity 100    
Minimum Humidity 90    
Precipitation  
Precipitation 0.28 in 0.11 in - ()
Sea Level Pressure  
Sea Level Pressure 29.49 in    
Wind  
Wind Speed 10 mph ()    
Max Wind Speed 20 mph    
Max Gust Speed -    
Visibility 6.1 miles    
Events Rain    
Averages and records for this station are not official NWS values.
T = Trace of Precipitation, MM = Missing Value Source: Averaged Metar Reports

Daily Weather History Graph

Daily Weather History Graph

Search for Another Location

Airport:

Trip Planner

Search our weather history database for the weather conditions in past years. The results will help you decide how hot, cold, wet, or windy it might be!

Date:

Astronomy

Jan. 14, 2014 Rise Set
Actual Time 8:40 AM GMT 4:48 PM GMT
Civil Twilight 8:00 AM GMT 5:29 PM GMT
Nautical Twilight 7:17 AM GMT 6:12 PM GMT
Astronomical Twilight 6:36 AM GMT 6:53 PM GMT
Moon 3:46 PM GMT (1/14) 7:02 AM GMT (1/14)
Length of Visible Light 9h 28m
Length of Day
8h 08m
Waxing Gibbous, 97% of the Moon is Illuminated
Jan 14
Waxing Gibbous
Jan 16
Full
Jan 24
Last Quarter
Jan 30
New
Feb 6
First Quarter

Hourly Weather History & Observations

Time (GMT) Temp. Windchill Dew Point Humidity Pressure Visibility Wind Dir Wind Speed Gust Speed Precip Events Conditions
12:00 AM 33 °F - 32 °F 92% 29.59 in 12 mi ESE 6.7 mph - -   Partly Cloudy
12:00 AM 32.0 °F 25.6 °F 32.0 °F 100% 29.56 in 6.2 mi ESE 6.9 mph - N/A   Partly Cloudy
12:30 AM 33.8 °F 27.7 °F 32.0 °F 93% 29.59 in 6.2 mi ESE 6.9 mph - N/A   Partly Cloudy
1:00 AM 33 °F - 32 °F 96% 29.58 in 12 mi ESE 8.9 mph - -   Scattered Clouds
1:00 AM 33.8 °F 26.4 °F 32.0 °F 93% 29.56 in 6.2 mi ESE 9.2 mph - N/A   Partly Cloudy
1:30 AM 32.0 °F 24.8 °F 32.0 °F 100% 29.56 in 6.2 mi ESE 8.1 mph - N/A   Partly Cloudy
2:00 AM 33 °F - 32 °F 94% 29.59 in 12 mi ESE 6.7 mph - -   Scattered Clouds
2:00 AM 33.8 °F 27.7 °F 32.0 °F 93% 29.59 in 6.2 mi ESE 6.9 mph - N/A   Partly Cloudy
2:30 AM 32.0 °F 24.8 °F 32.0 °F 100% 29.59 in 6.2 mi ESE 8.1 mph - N/A   Partly Cloudy
3:00 AM 33 °F - 32 °F 96% 29.60 in 12 mi ESE 8.9 mph - -   Scattered Clouds
3:00 AM 33.8 °F 27.0 °F 32.0 °F 93% 29.59 in 6.2 mi ESE 8.1 mph - N/A   Partly Cloudy
3:30 AM 33.8 °F 26.4 °F 32.0 °F 93% 29.59 in - ESE 9.2 mph - N/A   Clear
4:00 AM 34 °F - 33 °F 92% 29.60 in 12 mi ESE 11.2 mph - -   Clear
4:00 AM 33.8 °F 25.8 °F 32.0 °F 93% 29.59 in - ESE 10.4 mph - N/A   Clear
4:30 AM 33.8 °F 26.4 °F 32.0 °F 93% 29.59 in - ESE 9.2 mph - N/A   Clear
5:00 AM 33 °F - 32 °F 96% 29.60 in 12 mi ESE 11.2 mph - -   Scattered Clouds
5:00 AM 33.8 °F 25.8 °F 32.0 °F 93% 29.59 in 6.2 mi ESE 10.4 mph - N/A   Mostly Cloudy
5:30 AM 33.8 °F 26.4 °F 33.8 °F 100% 29.59 in 6.2 mi ESE 9.2 mph - N/A   Mostly Cloudy
6:00 AM 34 °F - 33 °F 93% 29.60 in 16 mi ESE 11.2 mph - -   Mostly Cloudy
6:00 AM 33.8 °F 25.8 °F 32.0 °F 93% 29.59 in 6.2 mi ESE 10.4 mph - N/A   Mostly Cloudy
6:30 AM 35.6 °F 28.0 °F 33.8 °F 93% 29.56 in 6.2 mi ESE 10.4 mph - N/A   Mostly Cloudy
7:00 AM 35 °F - 33 °F 90% 29.58 in 16 mi ESE 13.4 mph - -   Scattered Clouds
7:00 AM 35.6 °F 27.1 °F 33.8 °F 93% 29.56 in 6.2 mi ESE 12.7 mph - N/A   Mostly Cloudy
7:30 AM 35.6 °F 29.2 °F 33.8 °F 93% 29.59 in 6.2 mi ESE 8.1 mph - N/A   Mostly Cloudy
8:00 AM 35 °F - 34 °F 92% 29.58 in 16 mi ESE 8.9 mph - -   Partly Cloudy
8:00 AM 35.6 °F 28.6 °F 33.8 °F 93% 29.56 in 6.2 mi ESE 9.2 mph - N/A   Mostly Cloudy
8:30 AM 35.6 °F 28.0 °F 33.8 °F 93% 29.56 in 6.2 mi ESE 10.4 mph - N/A Rain Light Rain
9:00 AM 35.6 °F 27.5 °F 33.8 °F 93% 29.56 in 6.2 mi ESE 11.5 mph - N/A Rain Light Rain
9:30 AM 35.6 °F 28.0 °F 33.8 °F 93% 29.56 in 6.2 mi ESE 10.4 mph - N/A Rain Light Rain
10:00 AM 36 °F - 35 °F 97% 29.57 in 6 mi East 11.2 mph - - Rain Light Rain
10:00 AM 37.4 °F 30.3 °F 35.6 °F 93% 29.56 in 6.2 mi East 10.4 mph - N/A Rain Light Rain
10:30 AM 37.4 °F 30.3 °F 37.4 °F 100% 29.53 in 6.2 mi ESE 10.4 mph - N/A Rain Light Rain
11:00 AM 39 °F - 38 °F 95% 29.54 in 4 mi ESE 11.2 mph - - Rain Light Rain
11:00 AM 39.2 °F 32.5 °F 37.4 °F 93% 29.53 in 4.3 mi ESE 10.4 mph - N/A Rain Light Rain
11:30 AM 39.2 °F 32.0 °F 39.2 °F 100% 29.50 in 3.1 mi ESE 11.5 mph - N/A Rain Light Rain
12:00 PM 40 °F - 40 °F 98% 29.49 in 6 mi SE 15.7 mph - - Rain Light Rain
12:00 PM 41.0 °F 33.1 °F 39.2 °F 93% 29.47 in 6.2 mi SE 15.0 mph - N/A   Mostly Cloudy
12:30 PM 41.0 °F 33.1 °F 41.0 °F 100% 29.44 in 6.2 mi SE 15.0 mph - N/A   Mostly Cloudy
1:00 PM 42 °F - 41 °F 95% 29.45 in 5 mi SE 13.4 mph - - Rain Light Drizzle
1:00 PM 42.8 °F 35.8 °F 41.0 °F 93% 29.44 in 5.0 mi SE 13.8 mph - N/A   Light Drizzle
1:30 PM 44.6 °F 38.1 °F 42.8 °F 93% 29.42 in 1.2 mi SSE 13.8 mph - N/A   Light Drizzle
2:00 PM 45 °F - 44 °F 93% 29.43 in 2 mi South 13.4 mph - - Rain Heavy Drizzle
2:00 PM 44.6 °F 38.4 °F 44.6 °F 100% 29.42 in 1.9 mi South 12.7 mph - N/A   Light Drizzle
2:30 PM 44.6 °F 38.1 °F 44.6 °F 100% 29.42 in 2.2 mi South 13.8 mph - N/A   Light Drizzle
3:00 PM 48 °F - 47 °F 96% 29.42 in 2 mi SSW 11.2 mph - - Rain Heavy Rain
3:00 PM 48.2 °F - 48.2 °F 100% 29.42 in 1.6 mi SSW 10.4 mph - N/A Rain Light Rain
3:30 PM 50.0 °F - 50.0 °F 100% 29.39 in 1.6 mi SW 19.6 mph - N/A Rain Light Rain
4:00 PM 50 °F - 50 °F 98% 29.41 in 2 mi SW 17.9 mph - - Rain Light Rain
4:00 PM 50.0 °F - 50.0 °F 100% 29.39 in 1.6 mi SW 18.4 mph - N/A Rain Light Rain
4:30 PM 50.0 °F - 50.0 °F 100% 29.42 in 1.6 mi SW 19.6 mph - N/A Rain Light Rain
5:00 PM 50 °F - 49 °F 96% 29.42 in 3 mi SW 17.9 mph - - Rain Light Rain
5:00 PM 50.0 °F - 50.0 °F 100% 29.42 in 3.1 mi SW 17.3 mph - N/A Rain Rain
5:30 PM 50.0 °F - 50.0 °F 100% 29.42 in 2.5 mi SW 19.6 mph - N/A   Light Drizzle
6:00 PM 50 °F - 49 °F 97% 29.42 in 2 mi SW 15.7 mph - - Rain Light Drizzle
6:00 PM 50.0 °F - 50.0 °F 100% 29.42 in 1.9 mi SW 16.1 mph - N/A   Light Drizzle
6:30 PM 50.0 °F - 48.2 °F 94% 29.42 in 1.9 mi SW 13.8 mph - N/A   Light Drizzle
7:00 PM 49 °F - 49 °F 100% 29.42 in 6 mi SSW 15.7 mph - - Rain Light Drizzle
7:00 PM 50.0 °F - 48.2 °F 94% 29.42 in 2.5 mi SSW 15.0 mph - N/A   Light Drizzle
7:30 PM 50.0 °F - 48.2 °F 94% 29.42 in 6.2 mi SW 12.7 mph - N/A   Mostly Cloudy
8:00 PM 49 °F - 49 °F 100% 29.42 in 4 mi SW 15.7 mph - - Rain Light Drizzle
8:00 PM 50.0 °F - 48.2 °F 94% 29.42 in 3.7 mi SW 15.0 mph - N/A   Light Drizzle
8:30 PM 50.0 °F - 48.2 °F 94% 29.42 in 6.2 mi SSW 13.8 mph - N/A Rain Light Drizzle
9:00 PM 50 °F - 49 °F 96% 29.40 in 9 mi South 8.9 mph - - Rain Light Rain
9:00 PM 50.0 °F - 50.0 °F 100% 29.39 in 6.2 mi South 8.1 mph - N/A Rain Light Drizzle
9:30 PM 50.0 °F - 50.0 °F 100% 29.39 in 6.2 mi SSW 10.4 mph - N/A Rain Light Drizzle
10:00 PM 50 °F - 50 °F 98% 29.39 in 10 mi South 11.2 mph - - Rain Light Drizzle
10:00 PM 50.0 °F - 50.0 °F 100% 29.39 in 6.2 mi South 11.5 mph - N/A   Light Drizzle
10:30 PM 50.0 °F - 50.0 °F 100% 29.36 in 6.2 mi South 11.5 mph - N/A   Light Drizzle
11:00 PM 50 °F - 50 °F 98% 29.37 in 12 mi South 11.2 mph - - Rain Light Drizzle
11:00 PM 50.0 °F - 50.0 °F 100% 29.36 in 6.2 mi South 11.5 mph - N/A   Light Drizzle
11:30 PM 50.0 °F - 50.0 °F 100% 29.33 in 6.2 mi South 11.5 mph - N/A   Light Drizzle